Butler Co Rgnl Airport - Hamilton, Ohio, United States - FAA: HAO - ICAO: KHAO - IATA: HAO

 
  Longest Runway: 5,500 feet   Approach Types: ILS/DME    Customs Landing Rights Airport: No   Port of Entry: No

Local Forecast

Today (1/18): Sunny, with a high near 32. Southwest wind around 14 mph.

Tonight (1/18): Mostly clear, with a low around 16. Southwest wind 5 to 7 mph.

Friday (1/19): Sunny, with a high near 40. Light south wind becoming southwest 5 to 10 mph in the morning.

Friday Night (1/19): Mostly clear, with a low around 28. Southwest wind around 8 mph.

Saturday (1/20): Partly sunny, with a high near 43. Southwest wind 7 to 9 mph.

Saturday Night (1/20): A chance of rain, mainly after 10pm. Cloudy, with a low around 37. Chance of precipitation is 30%. New precipitation amounts of less than a tenth of an inch possible.

Sunday (1/21): A chance of rain before noon. Cloudy, with a high near 49. Chance of precipitation is 30%.



Current Weather (METAR)

2021/01/18 04:53 KHAO 180453Z AUTO 25005KT 10SM BKN043 OVC075 M01/M04 A2980 RMK AO2 SLP098 T10061039 400221006

BUTLER COUNTY REGIONAL AIRPORT , OH, United States (KHAO) 39-22N 84-31W 188M Jan 17, 2021 - 11:53 PM EST / 2021.01.18 0453 UTC Wind: from the WSW (250 degrees) at 6 MPH (5 KT):0 Visibility: 10 mile(s):0 Sky conditions: overcast Temperature: 30.9 F (-0.6 C) Windchill: 24 F (-4 C):1 Dew Point: 25.0 F (-3.9 C) Relative Humidity: 78% Pressure (altimeter): 29.8 in. Hg (1009 hPa) ob: KHAO 180453Z AUTO 25005KT 10SM BKN043 OVC075 M01/M04 A2980 RMK AO2 SLP098 T10061039 400221006 cycle: 5

Terminal Forecast (TAF)